Location: Morosaglia
(42.4360°N, 9.3069°E)
Time: 18:02:02
(UTC+00:00)

Landsat 5 - Pass Details

Date: 07 June 2020
Orbit: 528 x 655 km, 98.2° (Epoch: 06 July)

Event Time Altitude Azimuth Distance (km) Brightness Sun altitude
Rises 02:39:37 0° 162° (SSE) 2,966 6.8 -10.4°
Reaches altitude 10° 02:41:50 10° 161° (SSE) 2,057 6.0 -10.1°
Maximum altitude 02:46:20 79° 75° (ENE) 667 3.8 -9.5°
Drops below altitude 10° 02:50:48 10° 350° (N) 2,038 6.7 -8.9°
Sets 02:52:59 0° 349° (NNW) 2,936 7.5 -8.6°
